| time (UTC) | temp C | wind direction | speed KPH | gust KPH | rain 1hr cm | rain 24hr cm | rain mn cm | humidity % | barometer mb |
| 20260506222208 | 21 | 143 | 1.6 | 9.7 | 0.00 | 0.00 | 0.00 | 64 | 1019.2 |
| 20260506221154 | 21 | 158 | 1.6 | 9.7 | 0.00 | 0.00 | 0.00 | 64 | 1019.4 |
| 20260506220140 | 21 | 136 | 1.6 | 8.0 | 0.00 | 0.00 | 0.00 | 64 | 1019.6 |
| 20260506215122 | 21 | 137 | 1.6 | 8.0 | 0.00 | 0.00 | 0.00 | 63 | 1019.6 |
| 20260506214136 | 21 | 139 | 1.6 | 12.9 | 0.00 | 0.00 | 0.00 | 62 | 1019.8 |
| 20260506212027 | 21 | 142 | 1.6 | 6.4 | 0.00 | 0.00 | 0.00 | 63 | 1019.9 |
| 20260506211003 | 22 | 139 | 1.6 | 11.3 | 0.00 | 0.00 | 0.00 | 62 | 1019.8 |
| 20260506204828 | 22 | 134 | 1.6 | 9.7 | 0.00 | 0.00 | 0.00 | 61 | 1019.9 |
| 20260506203823 | 22 | 148 | 1.6 | 8.0 | 0.00 | 0.00 | 0.00 | 62 | 1019.9 |
| 20260506202756 | 22 | 119 | 1.6 | 8.0 | 0.00 | 0.00 | 0.00 | 62 | 1020.1 |
| 20260506201739 | 22 | 139 | 1.6 | 6.4 | 0.00 | 0.00 | 0.00 | 60 | 1020.2 |
| 20260506195630 | 22 | 142 | 1.6 | 8.0 | 0.00 | 0.00 | 0.00 | 62 | 1020.6 |
| 20260506194608 | 22 | 146 | 1.6 | 9.7 | 0.00 | 0.00 | 0.00 | 61 | 1020.5 |
| 20260506193554 | 22 | 167 | 3.2 | 11.3 | 0.00 | 0.00 | 0.00 | 63 | 1020.6 |
| 20260506192603 | 22 | 39 | 3.2 | 11.3 | 0.00 | 0.00 | 0.00 | 63 | 1020.8 |
| 20260506191535 | 22 | 195 | 0.0 | 8.0 | 0.00 | 0.00 | 0.00 | 61 | 1020.8 |
| 20260506185407 | 21 | 155 | 0.0 | 6.4 | 0.00 | 0.00 | 0.00 | 63 | 1020.9 |
| 20260506184428 | 21 | 240 | 1.6 | 6.4 | 0.00 | 0.00 | 0.00 | 63 | 1020.8 |
| 20260506183430 | 21 | 220 | 1.6 | 8.0 | 0.00 | 0.00 | 0.00 | 63 | 1021.1 |
| 20260506182432 | 21 | 266 | 0.0 | 8.0 | 0.00 | 0.00 | 0.00 | 63 | 1021.0 |
| 20260506181430 | 20 | 314 | 0.0 | 6.4 | 0.00 | 0.00 | 0.00 | 66 | 1021.0 |
| 20260506175251 | 18 | 174 | 1.6 | 6.4 | 0.00 | 0.00 | 0.00 | 67 | 1021.0 |
| 20260506174306 | 19 | 207 | 1.6 | 6.4 | 0.00 | 0.00 | 0.00 | 66 | 1021.0 |
| 20260506173303 | 18 | 181 | 1.6 | 9.7 | 0.00 | 0.00 | 0.00 | 69 | 1021.0 |
| 20260506171120 | 18 | 206 | 1.6 | 6.4 | 0.00 | 0.00 | 0.00 | 68 | 1021.1 |
| 20260506170138 | 18 | 200 | 1.6 | 6.4 | 0.00 | 0.00 | 0.00 | 70 | 1021.1 |
| 20260506165136 | 18 | 183 | 1.6 | 6.4 | 0.00 | 0.00 | 0.00 | 70 | 1021.1 |
| 20260506164158 | 18 | 195 | 0.0 | 6.4 | 0.00 | 0.00 | 0.00 | 69 | 1021.1 |
| 20260506163138 | 18 | 202 | 1.6 | 6.4 | 0.00 | 0.00 | 0.00 | 69 | 1021.1 |
| 20260506162143 | 18 | 195 | 1.6 | 6.4 | 0.00 | 0.00 | 0.00 | 69 | 1021.1 |
| 20260506160043 | 18 | 188 | 0.0 | 4.8 | 0.00 | 0.00 | 0.00 | 68 | 1021.1 |
| 20260506155042 | 18 | 176 | 0.0 | 1.6 | 0.00 | 0.00 | 0.00 | 67 | 1021.0 |
| 20260506154036 | 18 | 160 | 0.0 | 0.0 | 0.00 | 0.00 | 0.00 | 68 | 1021.1 |
| 20260506153023 | 18 | 159 | 0.0 | 0.0 | 0.00 | 0.00 | 0.00 | 66 | 1021.0 |
| 20260506151954 | 18 | 153 | 0.0 | 0.0 | 0.00 | 0.00 | 0.00 | 68 | 1021.1 |
| 20260506151008 | 18 | 190 | 0.0 | 1.6 | 0.00 | 0.00 | 0.00 | 68 | 1021.0 |
| 20260506145938 | 17 | 170 | 0.0 | 0.0 | 0.00 | 0.00 | 0.00 | 72 | 1021.0 |
| 20260506144945 | 18 | 170 | 0.0 | 0.0 | 0.00 | 0.00 | 0.00 | 70 | 1020.9 |
| 20260506142907 | 17 | 174 | 0.0 | 0.0 | 0.00 | 0.00 | 0.00 | 75 | 1020.8 |
| 20260506140749 | 14 | 161 | 0.0 | 0.0 | 0.00 | 0.00 | 0.00 | 91 | 1020.7 |
| 20260506135810 | 13 | 161 | 0.0 | 0.0 | 0.00 | 0.00 | 0.00 | 92 | 1020.6 |
| 20260506134805 | 12 | 161 | 0.0 | 0.0 | 0.00 | 0.00 | 0.00 | 92 | 1020.4 |
| 20260506133820 | 11 | 161 | 0.0 | 0.0 | 0.00 | 0.00 | 0.00 | 92 | 1020.5 |
| 20260506132757 | 11 | 161 | 0.0 | 0.0 | 0.00 | 0.00 | 0.00 | 92 | 1020.4 |
| 20260506131822 | 11 | 161 | 0.0 | 0.0 | 0.00 | 0.00 | 0.00 | 92 | 1020.4 |
| 20260506130838 | 11 | 161 | 0.0 | 0.0 | 0.00 | 0.00 | 0.00 | 92 | 1020.4 |
| 20260506124638 | 11 | 161 | 0.0 | 0.0 | 0.00 | 0.00 | 0.00 | 93 | 1020.2 |
| 20260506123655 | 11 | 161 | 0.0 | 0.0 | 0.00 | 0.00 | 0.00 | 93 | 1020.2 |
| 20260506122700 | 11 | 161 | 0.0 | 0.0 | 0.00 | 0.00 | 0.00 | 93 | 1020.2 |
| 20260506121720 | 11 | 161 | 0.0 | 0.0 | 0.00 | 0.00 | 0.00 | 93 | 1020.1 |
| 20260506120713 | 11 | 161 | 0.0 | 0.0 | 0.00 | 0.00 | 0.00 | 93 | 1020.1 |
| 20260506114551 | 11 | 161 | 0.0 | 0.0 | 0.00 | 0.00 | 0.00 | 93 | 1020.0 |
| 20260506113536 | 11 | 161 | 0.0 | 0.0 | 0.00 | 0.00 | 0.00 | 93 | 1019.9 |
| 20260506112528 | 11 | 161 | 0.0 | 0.0 | 0.00 | 0.00 | 0.00 | 93 | 1019.9 |
| 20260506111527 | 11 | 161 | 0.0 | 0.0 | 0.00 | 0.00 | 0.00 | 93 | 1019.8 |
| 20260506105404 | 11 | 161 | 0.0 | 0.0 | 0.00 | 0.00 | 0.00 | 93 | 1019.6 |
| 20260506104335 | 11 | 161 | 0.0 | 0.0 | 0.00 | 0.00 | 0.00 | 93 | 1019.6 |
| 20260506102215 | 11 | 161 | 0.0 | 0.0 | 0.00 | 0.00 | 0.00 | 93 | 1019.5 |
| 20260506101233 | 11 | 161 | 0.0 | 0.0 | 0.00 | 0.00 | 0.00 | 93 | 1019.4 |
| 20260506100201 | 11 | 161 | 0.0 | 0.0 | 0.00 | 0.00 | 0.00 | 93 | 1019.3 |
| 20260506095138 | 11 | 161 | 0.0 | 0.0 | 0.00 | 0.00 | 0.00 | 93 | 1019.4 |
| 20260506093026 | 11 | 161 | 0.0 | 0.0 | 0.00 | 0.00 | 0.00 | 93 | 1019.6 |
| 20260506090925 | 10 | 161 | 0.0 | 0.0 | 0.00 | 0.00 | 0.00 | 93 | 1019.4 |
| 20260506085936 | 10 | 161 | 0.0 | 0.0 | 0.00 | 0.00 | 0.00 | 93 | 1019.3 |
| 20260506084946 | 10 | 161 | 0.0 | 0.0 | 0.00 | 0.00 | 0.00 | 93 | 1019.4 |
| 20260506083951 | 10 | 161 | 0.0 | 0.0 | 0.00 | 0.00 | 0.00 | 93 | 1019.5 |
| 20260506082943 | 10 | 161 | 0.0 | 0.0 | 0.00 | 0.00 | 0.00 | 93 | 1019.5 |
| 20260506081932 | 10 | 161 | 0.0 | 0.0 | 0.00 | 0.05 | 0.00 | 92 | 1019.6 |
| 20260506072853 | 9 | 161 | 0.0 | 0.0 | 0.00 | 0.20 | 0.00 | 92 | 1019.1 |
| 20260506071836 | 9 | 161 | 0.0 | 0.0 | 0.00 | 0.23 | 0.00 | 92 | 1019.2 |
| 20260506070854 | 9 | 161 | 0.0 | 0.0 | 0.00 | 0.23 | 0.00 | 92 | 1019.1 |
| 20260506061848 | 9 | 161 | 0.0 | 0.0 | 0.00 | 0.23 | 0.23 | 91 | 1018.8 |
| 20260506060834 | 9 | 161 | 0.0 | 0.0 | 0.00 | 0.23 | 0.23 | 91 | 1018.6 |
| 20260506044332 | 10 | 161 | 0.0 | 0.0 | 0.00 | 0.41 | 0.23 | 89 | 1018.3 |
| 20260506043340 | 11 | 161 | 0.0 | 0.0 | 0.00 | 0.46 | 0.23 | 88 | 1018.1 |
| 20260506042313 | 11 | 161 | 0.0 | 0.0 | 0.00 | 0.51 | 0.23 | 87 | 1018.0 |
| 20260506040147 | 11 | 161 | 0.0 | 0.0 | 0.00 | 0.53 | 0.23 | 86 | 1017.6 |
| 20260506035136 | 12 | 161 | 0.0 | 0.0 | 0.00 | 0.53 | 0.23 | 85 | 1017.4 |
| 20260506034128 | 12 | 161 | 0.0 | 0.0 | 0.00 | 0.53 | 0.23 | 85 | 1017.2 |
| 20260506033141 | 12 | 144 | 0.0 | 0.0 | 0.00 | 0.56 | 0.23 | 84 | 1017.1 |
| 20260506031008 | 13 | 138 | 0.0 | 1.6 | 0.00 | 0.58 | 0.23 | 82 | 1016.7 |
| 20260506030021 | 13 | 176 | 0.0 | 4.8 | 0.00 | 0.58 | 0.23 | 81 | 1016.7 |
| 20260506024954 | 13 | 165 | 0.0 | 1.6 | 0.00 | 0.58 | 0.23 | 80 | 1016.6 |
| 20260506022830 | 15 | 148 | 0.0 | 9.7 | 0.00 | 0.58 | 0.23 | 79 | 1016.6 |
| 20260506021758 | 15 | 136 | 0.0 | 9.7 | 0.00 | 0.58 | 0.23 | 78 | 1016.5 |
| 20260506020736 | 15 | 142 | 0.0 | 9.7 | 0.00 | 0.58 | 0.23 | 77 | 1016.3 |
| 20260506015703 | 16 | 155 | 0.0 | 9.7 | 0.00 | 0.58 | 0.23 | 75 | 1016.2 |
| 20260506014727 | 16 | 144 | 0.0 | 9.7 | 0.00 | 0.58 | 0.23 | 75 | 1016.1 |
| 20260506013716 | 16 | 142 | 0.0 | 9.7 | 0.00 | 0.58 | 0.23 | 76 | 1016.2 |
| 20260506012642 | 16 | 167 | 0.0 | 8.0 | 0.00 | 0.58 | 0.23 | 75 | 1016.1 |
| 20260506011633 | 16 | 158 | 1.6 | 8.0 | 0.00 | 0.58 | 0.23 | 75 | 1016.2 |
| 20260506010623 | 17 | 26 | 1.6 | 6.4 | 0.00 | 0.58 | 0.23 | 74 | 1016.1 |
| 20260506005645 | 16 | 145 | 0.0 | 9.7 | 0.00 | 0.58 | 0.23 | 75 | 1016.0 |
| 20260506004700 | 16 | 141 | 1.6 | 9.7 | 0.00 | 0.58 | 0.23 | 75 | 1016.0 |
| 20260506003650 | 16 | 158 | 1.6 | 9.7 | 0.00 | 0.58 | 0.23 | 75 | 1015.9 |
| 20260506002633 | 17 | 142 | 1.6 | 8.0 | 0.00 | 0.58 | 0.23 | 73 | 1015.8 |
| 20260506001631 | 17 | 139 | 1.6 | 8.0 | 0.00 | 0.58 | 0.23 | 73 | 1015.7 |
| 20260506000558 | 17 | 120 | 0.0 | 8.0 | 0.00 | 0.58 | 0.23 | 75 | 1015.7 |
| 20260505235540 | 17 | 139 | 1.6 | 8.0 | 0.00 | 0.58 | 0.23 | 75 | 1015.7 |
| 20260505234544 | 16 | 323 | 1.6 | 9.7 | 0.00 | 0.58 | 0.23 | 75 | 1015.8 |
| 20260505233552 | 16 | 141 | 1.6 | 9.7 | 0.00 | 0.58 | 0.23 | 75 | 1015.8 |
| 20260505232546 | 16 | 139 | 1.6 | 6.4 | 0.00 | 0.58 | 0.23 | 75 | 1015.9 |
| 20260505231546 | 16 | 148 | 1.6 | 4.8 | 0.00 | 0.58 | 0.23 | 74 | 1015.8 |
| 20260505230545 | 17 | 138 | 0.0 | 4.8 | 0.00 | 0.58 | 0.23 | 73 | 1015.9 |
| 20260505225553 | 17 | 131 | 1.6 | 11.3 | 0.00 | 0.58 | 0.23 | 73 | 1015.8 |
| 20260505224529 | 17 | 186 | 1.6 | 11.3 | 0.00 | 0.58 | 0.23 | 73 | 1015.8 |
| 20260505223543 | 17 | 143 | 1.6 | 12.9 | 0.00 | 0.58 | 0.23 | 73 | 1015.8 |